1491753601.02,44550,15.25,74160.8,2.51,-27.77,-27.99,0,*7B
1491753602.3,44551,15.25,74160.8,2.51,-27.83,-28.21,0,*7D
1491753603.56,44552,15.25,74164.0,2.51,-28.37,-28.63,0,*78
1491753604.81,44553,15.25,74164.8,2.51,-28.37,-28.63,0,*79
1491753606.06,44554,15.25,74162.5,2.51,-28.47,-28.69,0,*73
1491753607.29,44555,15.25,74160.8,2.49,-28.09,-28.31,0,*7C
1491753608.55,44556,15.25,74162.5,2.51,-27.67,-27.99,0,*7C
1491753609.8,44557,15.25,74160.8,2.49,-28.09,-28.47,0,*7F
1491753611.03,44558,15.25,74164.5,2.49,-28.21,-28.37,0,*7D
1491753612.28,44559,15.25,74162.8,2.51,-28.09,-28.37,0,*7F
1491753613.51,44560,15.25,74162.0,2.49,-28.09,-28.37,0,*7C
1491753614.74,44561,15.25,74166.0,2.49,-27.93,-27.99,0,*7A
1491753616.0,44562,15.25,74164.0,2.49,-27.61,-27.83,0,*7F
1491753617.22,44563,15.31,74166.5,2.49,-27.51,-27.83,0,*7D
1491753618.42,44564,15.25,74166.0,2.49,-27.51,-27.77,0,*71
1491753619.65,44565,15.25,74162.3,2.49,-27.77,-28.09,0,*72
1491753620.9,44566,15.31,74164.8,2.51,-27.77,-27.99,0,*7E
1491753622.16,44567,15.25,74162.0,2.49,-27.61,-27.83,0,*7A
1491753623.37,44568,15.25,74162.5,2.49,-27.67,-27.93,0,*72
1491753624.59,44569,15.25,74166.5,2.51,-27.67,-27.93,0,*7A
1491753625.8,44570,15.25,74166.8,2.49,-27.51,-27.67,0,*75
1491753627.03,44571,15.25,74164.5,2.49,-27.29,-27.61,0,*7D
1491753628.26,44572,15.25,74166.0,2.49,-27.67,-27.99,0,*73
1491753629.52,44573,15.25,74166.5,2.51,-27.67,-27.99,0,*7B
1491753630.77,44574,15.25,74166.8,2.51,-27.77,-27.99,0,*7D
1491753632.03,44575,15.25,74164.0,2.51,-27.61,-27.93,0,*71
1491753633.29,44576,15.25,74166.5,2.49,-27.61,-27.99,0,*71
1491753634.52,44577,15.25,74162.3,2.49,-27.77,-28.09,0,*71
1491753635.75,44578,15.31,74164.5,2.49,-27.93,-28.09,0,*74
1491753637.0,44579,15.25,74162.8,2.51,-27.93,-28.21,0,*76
1491753638.24,44580,15.25,74162.3,2.49,-27.99,-28.31,0,*72
1491753639.46,44581,15.25,74160.0,2.49,-28.15,-28.47,0,*79
1491753640.69,44582,15.31,74164.8,2.49,-28.09,-28.31,0,*76
1491753641.96,44583,15.25,74162.0,2.51,-27.99,-28.47,0,*79
1491753643.17,44584,15.25,74162.3,2.49,-28.15,-28.31,0,*7D
1491753644.4,44585,15.25,74160.8,2.49,-28.09,-28.31,0,*71
1491753645.68,44586,15.25,74160.5,2.47,-27.99,-28.21,0,*7B
1491753646.96,44587,15.25,74160.3,2.47,-28.05,-28.43,0,*74
1491753648.21,44588,15.25,74162.3,2.47,-28.21,-28.53,0,*7C
1491753649.44,44589,15.25,74162.3,2.45,-28.37,-28.75,0,*7C
1491753650.68,44590,15.25,74160.3,2.45,-28.43,-28.75,0,*77
1491753651.91,44591,15.25,74164.8,2.45,-28.59,-28.85,0,*72
1491753653.14,44592,15.25,74164.5,2.45,-28.69,-29.01,0,*7F
1491753654.36,44593,15.25,74164.3,2.45,-28.59,-29.07,0,*7B
1491753655.63,44594,15.31,74166.5,2.43,-28.79,-29.13,0,*7D
1491753656.88,44595,15.31,74164.5,2.41,-28.79,-29.13,0,*7E
1491753658.13,44596,15.25,74162.8,2.41,-28.79,-29.13,0,*7D
1491753659.35,44597,15.25,74160.3,2.41,-28.75,-29.07,0,*75
1491753660.61,44598,15.25,74162.3,2.39,-28.63,-28.85,0,*79
1491753661.84,44599,15.25,74160.3,2.37,-28.43,-28.69,0,*76
1491753663.08,44600,15.31,74166.0,2.39,-28.15,-28.47,0,*74
1491753664.34,44601,15.25,74160.5,2.39,-28.25,-28.53,0,*73
1491753665.59,44602,15.25,74162.8,2.39,-28.09,-28.31,0,*7A
1491753666.83,44603,15.25,74162.8,2.37,-27.99,-28.31,0,*73
1491753668.08,44604,15.25,74164.5,2.39,-27.83,-28.15,0,*77
1491753669.33,44605,15.25,74164.8,2.39,-27.83,-28.15,0,*76
1491753670.58,44606,15.31,74166.5,2.39,-27.83,-28.15,0,*75
1491753671.84,44607,15.31,74166.8,2.39,-27.67,-28.09,0,*73
1491753673.09,44608,15.25,74166.0,2.39,-27.77,-27.99,0,*7B
1491753674.36,44609,15.25,74162.3,2.39,-27.83,-28.25,0,*79
1491753675.62,44610,15.25,74160.3,2.37,-27.83,-28.21,0,*7B
1491753676.83,44611,15.25,74162.3,2.37,-27.89,-28.31,0,*71
1491753678.06,44612,15.25,74160.8,2.39,-27.93,-28.15,0,*71
1491753679.31,44613,15.25,74162.3,2.39,-27.83,-28.15,0,*71
1491753680.54,44614,15.31,74164.5,2.37,-27.99,-28.31,0,*75
1491753681.78,44615,15.25,74164.0,2.39,-27.93,-28.15,0,*76
1491753682.98,44616,15.25,74166.8,2.37,-27.89,-28.15,0,*70
1491753684.19,44617,15.25,74162.8,2.37,-27.89,-28.31,0,*77
1491753685.45,44618,15.31,74166.5,2.39,-27.93,-28.25,0,*78
1491753686.68,44619,15.25,74162.5,2.39,-27.93,-28.31,0,*7C
1491753687.94,44620,15.31,74160.8,2.37,-28.21,-28.43,0,*7B
1491753689.17,44621,15.31,74166.5,2.37,-28.21,-28.53,0,*7B
1491753690.4,44622,15.31,74166.5,2.37,-28.69,-29.01,0,*72
1491753691.63,44623,15.25,74162.0,2.37,-28.69,-28.91,0,*7B
1491753692.86,44624,15.25,74160.3,2.37,-28.69,-29.01,0,*74
1491753694.08,44625,15.31,74162.8,2.35,-28.53,-28.75,0,*7C
1491753695.34,44626,15.31,74162.8,2.33,-28.37,-28.59,0,*75
1491753696.57,44627,15.25,74160.3,2.35,-28.21,-28.53,0,*7F
1491753697.77,44628,15.25,74164.3,2.35,-27.89,-28.37,0,*7F
1491753699.05,44629,15.31,74166.0,2.33,-28.05,-28.25,0,*70
1491753700.26,44630,15.31,74164.0,2.35,-27.67,-27.89,0,*7C
1491753701.51,44631,15.25,74162.5,2.33,-27.61,-27.93,0,*76
1491753702.74,44632,15.25,74164.5,2.35,-27.39,-27.71,0,*72
1491753703.94,44633,15.25,74162.0,2.35,-27.55,-27.93,0,*75
1491753705.14,44634,15.31,74164.3,2.35,-27.55,-27.89,0,*79
1491753706.36,44635,15.31,74166.3,2.35,-27.55,-27.99,0,*79
1491753707.59,44636,15.31,74164.0,2.35,-27.99,-28.37,0,*71
1491753708.82,44637,15.25,74162.3,2.35,-27.99,-28.31,0,*76
1491753710.05,44638,15.31,74164.0,2.35,-27.71,-28.05,0,*78
1491753711.27,44639,15.25,74160.5,2.35,-27.51,-27.83,0,*7A
1491753712.47,44640,15.25,74160.5,2.35,-27.29,-27.55,0,*70
1491753713.68,44641,15.31,74166.5,2.35,-27.29,-27.55,0,*71
1491753714.88,44642,15.25,74162.0,2.35,-27.29,-27.51,0,*76
1491753716.11,44643,15.25,74164.5,2.35,-27.03,-27.35,0,*7D
1491753717.36,44644,15.31,74166.3,2.37,-27.19,-27.39,0,*7F
1491753718.57,44645,15.31,74166.5,2.37,-27.29,-27.67,0,*76
1491753719.81,44646,15.25,74164.5,2.37,-27.67,-27.99,0,*7E
1491753721.04,44647,15.25,74164.5,2.37,-27.83,-28.31,0,*78
1491753722.27,44648,15.25,74164.5,2.37,-28.05,-28.37,0,*70
1491753723.5,44649,15.25,74166.5,2.37,-27.83,-28.15,0,*70
1491753724.79,44650,15.25,74164.5,2.39,-27.61,-28.09,0,*77
1491753726.02,44651,15.31,74164.5,2.37,-27.67,-27.99,0,*78
1491753727.26,44652,15.25,74164.3,2.37,-27.71,-28.05,0,*76
1491753728.46,44653,15.31,74166.5,2.37,-27.89,-28.15,0,*71
1491753729.69,44654,15.31,74166.8,2.35,-27.55,-28.05,0,*74
1491753730.92,44655,15.31,74166.5,2.35,-27.83,-28.15,0,*7F
1491753732.15,44656,15.25,74166.3,2.35,-27.55,-28.05,0,*76
1491753733.38,44657,15.31,74166.3,2.35,-27.67,-27.99,0,*7C
1491753734.6,44658,15.31,74164.5,2.35,-27.71,-27.99,0,*74
1491753735.84,44659,15.25,74160.8,2.35,-27.67,-27.99,0,*72
1491753737.07,44660,15.31,74164.3,2.35,-27.67,-28.05,0,*72
1491753738.3,44661,15.31,74166.3,2.35,-27.55,-28.05,0,*72
1491753739.52,44662,15.25,74164.0,2.35,-27.55,-27.99,0,*7B
1491753740.72,44663,15.31,74166.3,2.35,-27.55,-27.89,0,*7B
1491753741.95,44664,15.25,74164.8,2.35,-27.71,-28.05,0,*71
1491753743.18,44665,15.31,74164.0,2.35,-27.55,-28.05,0,*76
1491753744.38,44666,15.25,74166.0,2.35,-27.51,-27.89,0,*7A
1491753745.61,44667,15.31,74164.5,2.35,-27.67,-27.99,0,*7F
1491753746.87,44668,15.25,74164.8,2.33,-27.77,-28.21,0,*7B
1491753748.09,44669,15.25,74162.3,2.35,-27.51,-27.83,0,*7F
1491753749.32,44670,15.25,74162.0,2.35,-27.51,-27.83,0,*77
1491753750.52,44671,15.31,74170.0,2.35,-27.55,-27.89,0,*78
1491753751.72,44672,15.31,74164.5,2.35,-27.55,-27.89,0,*7B
1491753752.94,44673,15.25,74166.8,2.35,-27.55,-27.99,0,*7B
1491753754.17,44674,15.31,74164.8,2.35,-27.71,-28.05,0,*70
1491753755.38,44675,15.31,74166.5,2.35,-27.89,-28.15,0,*77
1491753756.63,44676,15.31,74166.8,2.33,-28.37,-28.59,0,*70
1491753757.86,44677,15.25,74164.8,2.35,-28.31,-28.59,0,*71
1491753759.1,44678,15.25,74162.8,2.35,-28.43,-28.75,0,*75
1491753760.35,44679,15.25,74164.0,2.33,-28.37,-28.75,0,*71
1491753761.63,44680,15.25,74162.0,2.33,-28.09,-28.43,0,*7F
1491753762.88,44681,15.25,74164.0,2.33,-27.93,-28.25,0,*72
1491753764.14,44682,15.31,74166.5,2.33,-27.61,-27.89,0,*75
1491753765.43,44683,15.25,74164.0,2.33,-27.61,-28.05,0,*7F
1491753766.69,44684,15.25,74162.3,2.33,-27.61,-27.93,0,*78
1491753767.92,44685,15.25,74160.5,2.33,-27.55,-27.71,0,*72
1491753769.16,44686,15.25,74162.0,2.33,-27.35,-27.71,0,*77
1491753770.43,44687,15.31,74166.0,2.33,-27.19,-27.45,0,*7F
1491753771.7,44688,15.31,74164.5,2.33,-27.23,-27.45,0,*79
1491753772.92,44689,15.25,74162.3,2.35,-27.35,-27.55,0,*78
1491753774.14,44690,15.25,74162.8,2.35,-27.35,-27.55,0,*70
1491753775.37,44691,15.31,74166.3,2.35,-27.39,-27.71,0,*7B
1491753776.59,44692,15.31,74166.8,2.35,-27.39,-27.71,0,*78
1491753777.82,44693,15.25,74160.5,2.35,-27.55,-27.99,0,*75
1491753779.04,44694,15.25,74164.5,2.35,-27.51,-27.83,0,*7D
1491753780.27,44695,15.25,74164.5,2.35,-27.67,-27.99,0,*72
1491753781.5,44696,15.25,74162.8,2.35,-27.51,-27.83,0,*7F
1491753782.74,44697,15.31,74164.5,2.33,-27.35,-27.55,0,*71
1491753783.95,44698,15.31,74166.8,2.35,-27.29,-27.51,0,*71
1491753785.17,44699,15.25,74164.5,2.35,-27.13,-27.45,0,*7C
1491753786.39,44700,15.25,74166.0,2.35,-27.51,-27.83,0,*71
1491753787.62,44701,15.25,74160.5,2.37,-27.35,-27.67,0,*7A
1491753788.84,44702,15.31,74168.0,2.35,-27.35,-27.55,0,*7A
1491753790.07,44703,15.25,74166.0,2.35,-27.29,-27.39,0,*7C
1491753791.3,44704,15.25,74162.8,2.35,-27.13,-27.39,0,*72
1491753792.5,44705,15.25,74166.8,2.35,-27.29,-27.51,0,*74
1491753793.71,44706,15.25,74162.5,2.37,-27.29,-27.55,0,*71
1491753794.94,44707,15.31,74166.8,2.37,-27.35,-27.71,0,*7B
1491753796.17,44708,15.25,74162.5,2.37,-27.51,-27.83,0,*7B
1491753797.38,44709,15.31,74166.0,2.37,-27.71,-28.15,0,*78
1491753798.62,44710,15.25,74162.0,2.37,-28.05,-28.31,0,*7A
1491753799.82,44711,15.25,74160.3,2.37,-28.31,-28.53,0,*78
1491753801.05,44712,15.25,74164.0,2.35,-28.05,-28.37,0,*7C
1491753802.28,44713,15.31,74166.8,2.35,-27.71,-28.25,0,*72
1491753803.5,44714,15.25,74162.8,2.35,-27.89,-28.21,0,*76
1491753804.76,44715,15.25,74160.3,2.33,-27.71,-28.09,0,*7C
1491753806.01,44716,15.31,74164.3,2.33,-27.71,-28.21,0,*75
1491753807.24,44717,15.25,74164.8,2.35,-27.83,-28.15,0,*78
1491753808.46,44718,15.25,74164.5,2.35,-27.99,-28.37,0,*7C
1491753809.71,44719,15.25,74166.0,2.33,-27.93,-28.43,0,*72
1491753810.97,44720,15.31,74164.8,2.33,-27.93,-28.43,0,*78
1491753812.22,44721,15.31,74166.8,2.33,-27.77,-28.25,0,*73
1491753813.47,44722,15.31,74168.0,2.29,-27.77,-28.25,0,*7B
1491753814.72,44723,15.31,74170.5,2.29,-27.89,-28.25,0,*7B
1491753815.95,44724,15.31,74166.3,2.29,-27.89,-28.37,0,*7F
1491753817.2,44725,15.31,74166.5,2.29,-28.05,-28.37,0,*75
1491753818.47,44726,15.25,74166.0,2.29,-28.09,-28.47,0,*7D
1491753819.74,44727,15.31,74168.3,2.29,-28.09,-28.43,0,*78
1491753820.99,44728,15.25,74166.8,2.27,-27.99,-28.47,0,*7B
1491753822.25,44729,15.31,74170.3,2.27,-28.09,-28.43,0,*78
1491753823.47,44730,15.31,74164.3,2.27,-28.15,-28.47,0,*79
1491753824.7,44731,15.31,74164.0,2.27,-28.25,-28.53,0,*7E
1491753825.94,44732,15.31,74168.8,2.27,-28.25,-28.53,0,*7D
1491753827.19,44733,15.25,74164.0,2.27,-27.99,-28.43,0,*75
1491753828.42,44734,15.31,74166.0,2.27,-27.83,-28.31,0,*7C
1491753829.67,44735,15.31,74168.8,2.25,-27.83,-28.15,0,*79
1491753830.92,44736,15.31,74164.5,2.25,-27.77,-28.09,0,*7C
1491753832.18,44737,15.25,74160.3,2.25,-27.77,-28.25,0,*73
1491753833.44,44738,15.25,74164.8,2.25,-27.77,-28.25,0,*7C
1491753834.71,44739,15.25,74164.0,2.25,-27.83,-28.25,0,*76
1491753835.97,44740,15.25,74164.5,2.25,-27.83,-28.15,0,*7B
1491753837.22,44741,15.31,74164.3,2.25,-27.83,-28.31,0,*7C
1491753838.45,44742,15.31,74162.8,2.25,-27.77,-28.15,0,*72
1491753839.66,44743,15.31,74164.8,2.23,-27.89,-28.31,0,*72
1491753840.88,44744,15.25,74160.5,2.23,-27.89,-28.21,0,*74
1491753842.14,44745,15.25,74162.0,2.25,-27.83,-28.15,0,*7E
1491753843.42,44746,15.31,74164.3,2.25,-27.83,-28.25,0,*7E
1491753844.67,44747,15.25,74162.3,2.25,-27.83,-28.31,0,*7A
1491753845.92,44748,15.25,74162.5,2.25,-27.71,-27.99,0,*75
1491753847.13,44749,15.31,74164.8,2.23,-27.89,-28.31,0,*78
1491753848.33,44750,15.31,74162.3,2.23,-27.71,-28.15,0,*71
1491753849.54,44751,15.25,74160.3,2.23,-27.71,-28.15,0,*70
1491753850.79,44752,15.25,74160.3,2.23,-27.83,-28.21,0,*79
1491753852.02,44753,15.25,74162.5,2.23,-27.83,-28.31,0,*79
1491753853.27,44754,15.31,74162.0,2.23,-27.83,-28.21,0,*7F
1491753854.52,44755,15.31,74162.0,2.25,-27.67,-28.09,0,*78
1491753855.78,44756,15.31,74160.0,2.25,-27.77,-28.21,0,*70
1491753857.04,44757,15.25,74162.3,2.25,-27.77,-28.25,0,*75
1491753858.26,44758,15.25,74158.8,2.23,-27.99,-28.31,0,*79
1491753859.52,44759,15.31,74162.3,2.25,-27.93,-28.43,0,*71
1491753860.72,44760,15.31,74160.5,2.23,-28.15,-28.53,0,*7D
1491753861.94,44761,15.31,74164.0,2.23,-28.31,-28.59,0,*70
1491753863.16,44762,15.31,74164.8,2.23,-28.15,-28.47,0,*7A
1491753864.39,44763,15.25,74162.3,2.23,-28.37,-28.59,0,*74
1491753865.65,44764,15.25,74162.0,2.21,-28.37,-28.75,0,*7F
1491753866.9,44765,15.31,74166.0,2.19,-28.43,-28.91,0,*7C
1491753868.15,44766,15.31,74164.8,2.21,-28.31,-28.59,0,*75
1491753869.38,44767,15.31,74162.8,2.21,-28.31,-28.53,0,*7E
1491753870.64,44768,15.25,74162.3,2.21,-28.05,-28.37,0,*74
1491753871.89,44769,15.31,74160.8,2.21,-27.99,-28.37,0,*7F
1491753873.12,44770,15.31,74162.3,2.19,-28.09,-28.53,0,*78
1491753874.37,44771,15.31,74166.0,2.19,-28.09,-28.43,0,*78
1491753875.6,44772,15.31,74164.8,2.19,-27.77,-28.21,0,*79
1491753876.8,44773,15.31,74164.3,2.19,-27.89,-28.37,0,*7E
1491753878.0,44774,15.31,74162.0,2.19,-27.93,-28.37,0,*72
1491753879.2,44775,15.25,74160.5,2.19,-27.71,-27.93,0,*7E
1491753880.43,44776,15.31,74164.3,2.19,-27.71,-28.05,0,*7D
1491753881.63,44777,15.31,74164.5,2.19,-27.51,-27.89,0,*75
1491753882.85,44778,15.25,74160.5,2.19,-27.39,-27.89,0,*74
1491753884.08,44779,15.25,74162.5,2.19,-27.71,-28.05,0,*72
1491753885.32,44780,15.31,74164.5,2.19,-27.61,-27.89,0,*7E
1491753886.54,44781,15.25,74160.0,2.19,-27.71,-28.09,0,*79
1491753887.77,44782,15.25,74158.3,2.19,-27.89,-28.25,0,*73
1491753889.0,44783,15.31,74160.3,2.19,-27.89,-28.21,0,*76
1491753890.23,44784,15.31,74162.0,2.19,-27.89,-28.25,0,*75
1491753891.45,44785,15.25,74162.0,2.19,-27.89,-28.09,0,*7A
1491753892.68,44786,15.25,74162.3,2.19,-27.89,-28.21,0,*73
1491753893.91,44787,15.25,74158.5,2.19,-28.09,-28.53,0,*70
1491753895.14,44788,15.31,74162.5,2.17,-27.93,-28.31,0,*79
1491753896.42,44789,15.31,74162.3,2.17,-27.99,-28.25,0,*77
1491753897.65,44790,15.31,74162.8,2.17,-27.77,-28.15,0,*7C
1491753898.91,44791,15.31,74160.8,2.17,-27.77,-28.25,0,*7E
1491753900.19,44792,15.31,74160.5,2.17,-27.83,-28.25,0,*76
1491753901.42,44793,15.31,74160.5,2.17,-27.93,-28.31,0,*73
1491753902.65,44794,15.31,74160.8,2.17,-27.93,-28.31,0,*74
1491753903.93,44795,15.31,74164.8,2.17,-28.09,-28.47,0,*78
1491753905.2,44796,15.25,74162.0,2.17,-27.99,-28.43,0,*79
1491753906.46,44797,15.25,74164.3,2.15,-28.09,-28.59,0,*77
1491753907.71,44798,15.31,74166.0,2.15,-28.09,-28.59,0,*78
1491753908.96,44799,15.31,74166.0,2.17,-28.15,-28.59,0,*76
1491753910.19,44800,15.31,74164.0,2.15,-28.15,-28.59,0,*7B
1491753911.46,44801,15.31,74164.3,2.17,-27.99,-28.47,0,*7C
1491753912.69,44802,15.25,74160.8,2.15,-27.99,-28.31,0,*7C
1491753913.92,44803,15.25,74160.0,2.15,-27.83,-28.15,0,*70
1491753915.15,44804,15.31,74162.3,2.15,-27.93,-28.25,0,*75
1491753916.37,44805,15.25,74162.5,2.15,-27.77,-28.09,0,*70
1491753917.6,44806,15.25,74160.0,2.15,-27.55,-27.83,0,*7E
1491753918.85,44807,15.25,74162.5,2.13,-27.67,-27.99,0,*73
1491753920.08,44808,15.31,74162.8,2.15,-27.39,-27.67,0,*70
1491753921.34,44809,15.25,74162.8,2.17,-27.23,-27.67,0,*78
1491753922.53,44810,15.31,74164.0,2.15,-27.13,-27.55,0,*70
1491753923.76,44811,15.25,74160.5,2.15,-27.39,-27.67,0,*78
1491753924.99,44812,15.25,74162.3,2.15,-27.67,-27.99,0,*71
1491753926.24,44813,15.25,74162.3,2.15,-27.39,-27.83,0,*70
1491753927.48,44814,15.25,74162.3,2.17,-27.29,-27.67,0,*7E
1491753928.7,44815,15.31,74160.0,2.15,-27.39,-27.77,0,*7D
1491753929.9,44816,15.31,74160.3,2.15,-27.55,-27.93,0,*7E
1491753931.15,44817,15.25,74160.0,2.17,-27.55,-27.83,0,*7C
1491753932.38,44818,15.31,74162.0,2.15,-27.45,-27.67,0,*7A
1491753933.63,44819,15.31,74160.5,2.15,-27.23,-27.61,0,*7D
1491753934.86,44820,15.31,74160.5,2.15,-27.23,-27.55,0,*70
1491753936.08,44821,15.25,74162.5,2.15,-27.23,-27.55,0,*71
1491753937.36,44822,15.31,74164.0,2.17,-27.23,-27.61,0,*77
1491753938.61,44823,15.31,74164.8,2.17,-27.23,-27.55,0,*71
1491753939.89,44824,15.25,74160.0,2.17,-27.23,-27.61,0,*71
1491753941.14,44825,15.31,74166.3,2.17,-27.39,-27.77,0,*7C
1491753942.39,44826,15.25,74160.8,2.17,-27.45,-27.77,0,*74
1491753943.67,44827,15.31,74162.3,2.17,-27.61,-27.83,0,*78
1491753944.92,44828,15.25,74156.0,2.17,-27.23,-27.55,0,*7A
1491753946.17,44829,15.25,74158.8,2.17,-27.23,-27.55,0,*7B
1491753947.43,44830,15.31,74166.8,2.17,-27.29,-27.61,0,*7E
1491753948.68,44831,15.31,74164.3,2.19,-27.35,-27.61,0,*7C
1491753949.9,44832,15.31,74162.8,2.19,-27.39,-27.77,0,*74
1491753951.14,44833,15.31,74164.8,2.21,-27.29,-27.55,0,*7F
1491753952.34,44834,15.31,74164.0,2.19,-27.51,-27.89,0,*7D
1491753953.57,44835,15.25,74162.8,2.19,-27.61,-27.93,0,*74
1491753954.83,44836,15.31,74162.3,2.21,-27.55,-27.83,0,*7A
1491753956.02,44837,15.31,74160.5,2.19,-27.51,-27.77,0,*7F
1491753957.25,44838,15.31,74160.5,2.19,-27.71,-28.05,0,*78
1491753958.45,44839,15.31,74162.5,2.19,-27.55,-27.93,0,*7F
1491753959.65,44840,15.31,74160.5,2.19,-27.55,-27.93,0,*71
1491753960.85,44841,15.31,74164.8,2.19,-27.51,-27.71,0,*78
1491753962.05,44842,15.31,74162.8,2.19,-27.71,-27.89,0,*7E
1491753963.28,44843,15.31,74160.8,2.19,-27.71,-28.05,0,*74
1491753964.51,44844,15.31,74162.3,2.19,-27.77,-28.21,0,*73
1491753965.74,44845,15.25,74162.3,2.19,-27.77,-28.21,0,*72
1491753967.0,44846,15.31,74166.0,2.17,-27.93,-28.25,0,*71
1491753968.23,44847,15.25,74162.5,2.19,-27.93,-28.25,0,*7E
1491753969.46,44848,15.31,74162.3,2.17,-27.93,-28.31,0,*7A
1491753970.71,44849,15.31,74166.8,2.17,-27.93,-28.43,0,*7E
1491753971.92,44850,15.31,74164.0,2.15,-27.93,-28.31,0,*71
1491753973.17,44851,15.31,74162.5,2.17,-27.93,-28.43,0,*77
1491753974.44,44852,15.25,74162.5,2.17,-27.99,-28.43,0,*7E
1491753975.72,44853,15.31,74164.0,2.17,-28.09,-28.47,0,*7D
1491753976.97,44854,15.31,74168.0,2.15,-27.99,-28.47,0,*7E
1491753978.22,44855,15.31,74164.3,2.17,-28.31,-28.63,0,*76
1491753979.45,44856,15.31,74160.5,2.15,-27.99,-28.31,0,*7D
1491753980.73,44857,15.31,74160.3,2.17,-27.99,-28.47,0,*7F
1491753981.98,44858,15.25,74160.5,2.15,-27.83,-28.25,0,*7D
1491753983.21,44859,15.31,74162.8,2.15,-27.93,-28.25,0,*7D
1491753984.41,44860,15.31,74160.8,2.15,-27.93,-28.31,0,*72
1491753985.66,44861,15.25,74160.8,2.15,-28.09,-28.47,0,*7E
1491753986.92,44862,15.31,74166.5,2.13,-28.31,-28.63,0,*76
1491753988.17,44863,15.25,74162.0,2.13,-28.31,-28.63,0,*77
1491753989.4,44864,15.31,74164.3,2.13,-27.89,-28.31,0,*7B
1491753990.68,44865,15.31,74162.0,2.13,-27.83,-28.21,0,*71
1491753991.91,44866,15.31,74160.5,2.11,-28.31,-28.63,0,*70
1491753993.12,44867,15.31,74164.3,2.11,-28.15,-28.53,0,*74
1491753994.35,44868,15.25,74160.8,2.11,-28.05,-28.37,0,*78
1491753995.57,44869,15.25,74158.8,2.13,-27.89,-28.37,0,*70
1491753996.8,44870,15.25,74160.5,2.13,-27.89,-28.37,0,*78
1491753998.01,44871,15.31,74160.3,2.11,-27.89,-28.31,0,*7D
1491753999.27,44872,15.25,74162.3,2.11,-28.21,-28.63,0,*74
1491754000.5,44873,15.31,74162.3,2.11,-28.05,-28.53,0,*70
1491754001.73,44874,15.31,74162.8,2.11,-27.89,-28.21,0,*79
1491754002.99,44875,15.25,74162.3,2.11,-27.83,-28.05,0,*74
1491754004.21,44876,15.31,74160.3,2.07,-27.77,-28.05,0,*7B
1491754005.44,44877,15.31,74162.0,2.07,-28.05,-28.37,0,*71
1491754006.69,44878,15.31,74162.8,2.07,-28.05,-28.43,0,*7D
1491754007.89,44879,15.25,74162.3,2.07,-27.93,-28.37,0,*7F
1491754009.09,44880,15.25,74158.5,2.07,-27.93,-28.37,0,*79
1491754010.36,44881,15.31,74162.3,2.05,-27.99,-28.43,0,*73
1491754011.59,44882,15.31,74162.5,2.07,-27.67,-28.09,0,*7D
1491754012.81,44883,15.31,74162.0,2.07,-27.39,-27.77,0,*71
1491754014.03,44884,15.31,74164.3,2.07,-27.55,-28.05,0,*76
1491754015.23,44885,15.25,74160.5,2.07,-27.89,-28.37,0,*77
1491754016.49,44886,15.31,74162.0,2.05,-27.99,-28.31,0,*71
1491754017.74,44887,15.31,74162.3,2.05,-27.99,-28.31,0,*70
1491754018.97,44888,15.31,74160.3,2.07,-27.89,-28.25,0,*79
1491754020.2,44889,15.31,74162.0,2.07,-27.93,-28.25,0,*73
1491754021.47,44890,15.31,74162.5,2.05,-28.09,-28.43,0,*75
1491754022.72,44891,15.31,74164.3,2.05,-28.15,-28.59,0,*72
1491754023.95,44892,15.25,74160.0,2.07,-28.05,-28.53,0,*78
1491754025.23,44893,15.25,74160.0,2.05,-28.09,-28.47,0,*72
1491754026.51,44894,15.25,74162.5,2.05,-27.99,-28.59,0,*7C
1491754027.78,44895,15.25,74160.3,2.05,-28.09,-28.59,0,*7B
1491754029.07,44896,15.31,74162.0,2.05,-28.09,-28.59,0,*78
1491754030.34,44897,15.31,74160.5,2.05,-28.09,-28.59,0,*79
1491754031.62,44898,15.25,74162.5,2.05,-28.09,-28.43,0,*7D
1491754032.88,44899,15.31,74162.5,2.05,-28.09,-28.31,0,*79
1491754034.11,44900,15.31,74160.5,2.03,-27.93,-28.25,0,*77
1491754035.36,44901,15.25,74160.5,2.03,-27.83,-28.25,0,*77
1491754036.59,44902,15.31,74160.5,2.03,-27.83,-28.31,0,*71
1491754037.85,44903,15.25,74162.3,2.05,-27.83,-28.15,0,*70
1491754039.1,44904,15.31,74160.5,2.05,-27.93,-28.25,0,*75
1491754040.31,44905,15.31,74160.0,2.03,-27.77,-28.15,0,*7B
1491754041.54,44906,15.25,74160.0,2.03,-27.99,-28.31,0,*7E
1491754042.8,44907,15.31,74164.0,2.03,-28.09,-28.47,0,*78
1491754044.05,44908,15.31,74164.5,2.03,-27.99,-28.43,0,*75
1491754045.3,44909,15.31,74162.5,2.03,-28.09,-28.43,0,*72
1491754046.55,44910,15.31,74162.5,2.03,-28.09,-28.47,0,*7E
1491754047.78,44911,15.31,74162.0,2.03,-28.15,-28.63,0,*74
1491754049.04,44912,15.31,74160.5,2.01,-28.21,-28.53,0,*71
1491754050.29,44913,15.31,74162.3,2.01,-28.05,-28.53,0,*76
1491754051.52,44914,15.31,74160.8,2.03,-28.15,-28.63,0,*71
1491754052.75,44915,15.31,74160.3,2.03,-28.15,-28.59,0,*79
1491754054.03,44916,15.31,74160.0,2.01,-28.21,-28.63,0,*76
1491754055.26,44917,15.31,74160.3,1.99,-28.05,-28.37,0,*72
1491754056.52,44918,15.31,74160.8,2.01,-28.21,-28.53,0,*7B
1491754057.77,44919,15.31,74162.3,2.01,-28.31,-28.63,0,*78
1491754059.02,44920,15.31,74162.0,2.01,-28.31,-28.79,0,*79
1491754060.24,44921,15.31,74162.3,1.99,-28.47,-28.85,0,*78
1491754061.45,44922,15.31,74162.8,1.99,-28.53,-28.85,0,*7E
1491754062.7,44923,15.31,74162.0,1.97,-28.43,-28.85,0,*70
1491754063.89,44924,15.31,74162.0,1.99,-28.15,-28.53,0,*71
1491754065.14,44925,15.25,74158.3,1.97,-28.37,-28.75,0,*7A
1491754066.37,44926,15.31,74162.8,1.99,-28.05,-28.37,0,*70
1491754067.62,44927,15.25,74160.5,1.97,-27.93,-28.25,0,*7C
1491754068.84,44928,15.31,74160.5,1.97,-27.93,-28.37,0,*70
1491754070.09,44929,15.31,74160.0,1.97,-27.89,-28.25,0,*79
1491754071.35,44930,15.31,74160.8,1.97,-27.89,-28.25,0,*71
1491754072.6,44931,15.31,74162.3,1.97,-27.71,-28.21,0,*73
1491754073.87,44932,15.25,74160.3,1.97,-27.83,-28.21,0,*7D
1491754075.12,44933,15.31,74162.0,1.97,-27.89,-28.21,0,*76
1491754076.39,44934,15.31,74162.8,1.97,-27.83,-28.25,0,*7F
1491754077.64,44935,15.31,74160.8,1.99,-27.99,-28.47,0,*7F
1491754078.89,44936,15.31,74162.3,1.97,-28.09,-28.53,0,*71
1491754080.16,44937,15.31,74166.0,1.97,-28.09,-28.43,0,*71
1491754081.41,44938,15.31,74160.5,1.97,-27.93,-28.25,0,*72
1491754082.66,44939,15.31,74160.5,1.97,-27.71,-28.05,0,*7D
1491754083.89,44940,15.25,74160.8,1.99,-27.39,-27.77,0,*7B
1491754085.11,44941,15.31,74160.5,1.97,-27.55,-27.93,0,*74
1491754086.33,44942,15.31,74160.5,1.97,-27.67,-27.93,0,*76
1491754087.58,44943,15.31,74162.8,1.97,-28.05,-28.53,0,*7F
1491754088.85,44944,15.31,74162.3,1.97,-28.09,-28.43,0,*75
1491754090.11,44945,15.31,74162.0,1.99,-28.05,-28.21,0,*72
1491754091.38,44946,15.31,74166.8,1.97,-27.83,-28.21,0,*7E
1491754092.64,44947,15.31,74160.3,1.97,-28.05,-28.37,0,*79
1491754093.88,44948,15.31,74162.0,1.97,-28.09,-28.53,0,*78
1491754095.11,44949,15.31,74162.5,1.97,-27.93,-28.37,0,*77
1491754096.33,44950,15.31,74166.3,1.97,-27.93,-28.37,0,*7F
1491754097.58,44951,15.25,74162.5,1.97,-27.89,-28.25,0,*76
1491754098.86,44952,15.25,74160.8,1.97,-27.83,-28.21,0,*7B
1491754100.09,44953,15.31,74162.5,1.95,-27.93,-28.21,0,*79
1491754101.29,44954,15.31,74160.8,1.95,-27.93,-28.31,0,*7F
1491754102.5,44955,15.31,74162.0,1.95,-27.77,-28.15,0,*72
1491754103.77,44956,15.25,74160.0,1.97,-27.83,-28.21,0,*7F